Wind_Speed
25 25 25 25 25 24 24 23 23 22 22 21 21 21 20 20 20 20 20 20 20 20 21 21 22 23 24 25 26 27 28 29 30 31 32 32 33 34 34 34 34 34 34 34 34 34 34 34 34 34 34 33 32 31 29 28 27 25 24 23 22 24 25 26 26 26 26 26 24
23 23 23 23 22 21 21 21 20 20 20 20 20 20 20 19 19 19 19 19 20 20 20 20 20 20 21 21 22 23 24 24 25 27 28 29 30 31 32 33 34 34 34 35 35 35 35 35 35 34 33 32 31 29 27 26 26 25 24 22 22 23 25 26 26 26 26 24 23
22 22 22 21 21 20 20 19 19 19 20 20 20 20 20 20 20 20 20 20 21 21 21 21 21 21 21 21 21 21 21 22 22 23 23 24 25 26 27 28 29 30 31 31 32 32 32 32 32 31 30 28 27 26 25 25 25 24 23 22 22 22 24 25 26 26 25 23 23
21 21 21 21 21 20 20 20 20 20 20 20 20 20 21 21 21 21 21 22 22 22 22 22 22 22 22 22 22 22 22 22 22 22 22 22 22 22 23 24 24 25 26 27 27 27 27 27 27 26 25 24 23 24 24 24 24 23 22 21 21 22 23 25 26 25 24 23 23
21 21 21 21 21 21 21 21 21 21 21 21 21 21 21 21 22 22 22 23 23 23 23 23 23 23 23 23 23 23 23 23 23 22 22 22 22 21 21 22 22 22 23 23 23 24 23 23 23 22 22 22 22 23 23 23 22 21 20 21 21 22 24 25 26 24 23 22 21
20 21 21 21 21 22 22 22 21 21 22 22 22 22 22 22 22 22 23 23 23 24 24 24 24 24 23 23 23 24 24 24 24 23 23 23 22 22 22 22 22 22 22 22 22 22 21 21 21 20 20 21 21 22 22 22 21 20 20 20 21 22 24 25 25 23 22 21 19
21 21 21 22 22 22 22 22 22 22 22 22 22 22 22 22 22 23 23 23 24 24 24 24 24 24 23 24 24 24 24 24 24 24 24 23 23 22 22 22 22 22 22 22 22 21 21 20 20 20 20 20 21 21 21 20 20 19 19 20 21 23 24 25 23 22 20 20 18
21 21 21 22 22 22 22 22 22 23 23 23 23 23 23 23 23 23 23 23 23 23 23 23 23 23 23 23 23 24 24 24 24 24 24 23 23 22 22 22 21 21 22 22 21 21 21 20 20 19 19 20 20 20 19 19 18 17 18 19 21 24 24 23 21 20 20 19 18
21 21 21 22 22 22 22 22 22 23 23 23 23 23 23 23 23 23 23 23 23 23 23 23 23 23 23 23 23 23 23 23 23 23 23 23 23 22 22 21 21 21 21 21 21 21 21 20 19 19 18 18 18 18 17 16 16 16 18 20 23 24 23 21 20 20 20 19 18
20 21 21 21 21 21 22 22 22 22 22 22 22 23 23 23 23 22 22 22 22 22 22 22 22 22 22 22 22 22 22 22 22 22 22 22 22 21 21 21 20 20 20 21 21 21 20 19 18 18 17 17 17 16 16 16 16 18 20 22 23 22 21 19 19 20 20 19 16
20 20 20 20 21 21 21 21 21 21 21 21 21 22 22 22 22 21 21 21 21 21 21 21 20 20 20 20 20 20 20 20 20 20 20 20 20 20 20 20 20 19 19 20 20 20 19 18 18 17 17 17 16 15 15 16 18 21 22 22 22 20 19 18 18 18 18 17 15
20 20 20 20 20 20 20 20 20 20 20 20 21 21 21 21 20 20 20 20 20 20 19 19 19 18 18 18 18 18 18 18 18 18 18 18 19 19 19 19 19 19 19 19 20 19 19 18 18 18 17 17 15 15 15 17 19 21 21 20 19 18 17 17 16 16 15 14 13
21 20 20 20 20 20 20 19 19 20 19 19 19 19 19 19 19 19 19 19 18 18 17 17 17 16 16 16 16 16 16 16 16 16 16 16 17 17 18 18 18 18 19 19 19 19 19 19 18 18 17 16 15 14 15 17 20 21 21 19 18 18 17 17 15 14 13 12 12
20 20 20 20 20 19 19 18 18 18 18 18 18 18 18 18 18 18 17 16 16 16 15 15 15 15 15 15 15 14 14 14 14 14 14 15 15 16 17 17 17 18 18 18 18 18 18 18 18 17 16 15 14 15 17 19 21 21 20 18 17 17 17 16 14 13 12 12 13
19 19 19 19 19 18 18 17 17 17 17 17 17 17 17 16 16 16 15 14 14 14 13 13 13 13 14 14 13 13 13 13 13 13 14 14 15 15 16 16 16 16 17 17 18 17 17 16 16 15 15 15 16 17 20 21 20 18 16 15 15 14 14 14 13 13 13 14 15
17 17 18 18 17 17 16 16 16 16 16 16 16 15 15 14 14 14 13 13 12 12 12 12 12 12 12 13 12 12 13 13 13 13 13 14 14 14 15 15 15 15 16 16 16 16 15 15 15 15 15 16 18 19 20 19 16 14 13 13 13 13 13 13 13 14 15 16 16
16 16 17 16 16 15 14 14 14 15 15 15 14 14 13 13 13 12 12 11 11 11 11 11 11 11 10 11 11 11 11 11 11 12 12 12 11 11 11 12 12 13 13 14 14 14 14 14 14 14 15 16 18 17 16 14 13 13 13 13 13 13 13 13 14 15 16 17 17
15 15 15 14 13 12 11 12 12 13 13 13 13 12 12 12 11 11 11 11 10 10 10 9 9 9 8 8 8 8 8 8 8 8 8 7 6 6 6 7 8 8 9 9 10 10 11 11 12 13 14 15 14 12 11 11 11 12 13 13 12 12 12 14 16 17 18 19 19
13 12 11 10 9 8 9 10 11 12 12 12 11 11 11 10 10 9 9 10 10 9 9 8 8 7 6 6 5 5 4 4 4 4 4 5 4 4 4 3 4 4 5 5 6 7 8 9 11 12 13 12 11 11 11 11 11 10 10 9 9 10 12 15 17 19 20 20 20
10 9 7 6 6 6 8 10 11 12 11 10 10 10 10 9 9 9 9 9 9 9 8 8 8 8 7 6 5 4 3 2 2 2 3 3 4 4 4 3 3 3 4 4 5 7 8 10 11 12 12 12 11 11 10 10 9 9 9 9 11 13 15 17 18 18 19 19 19
8 7 7 6 6 7 9 10 11 10 8 7 7 8 8 8 8 8 8 9 9 9 9 9 9 9 8 7 6 5 4 3 3 3 3 3 3 3 3 4 4 4 4 5 7 8 10 11 11 11 11 11 10 10 9 9 10 11 12 13 14 15 16 17 17 16 16 17 17
7 7 7 7 8 9 10 11 11 9 7 6 6 8 9 8 8 8 8 9 9 9 9 9 9 9 9 8 7 6 5 5 5 5 5 4 4 5 5 6 7 7 7 8 9 9 10 10 10 10 10 9 9 9 9 10 11 12 12 13 13 14 14 14 14 14 14 14 14
6 7 7 8 10 11 12 12 12 10 8 7 7 9 10 9 9 9 9 9 9 9 9 9 9 9 9 9 8 7 7 7 7 7 7 6 7 7 8 9 10 10 10 10 11 11 11 11 11 11 10 10 10 11 11 12 12 12 12 12 12 12 12 12 12 11 12 12 12
7 8 9 10 10 10 11 12 12 11 9 8 8 9 10 11 11 11 12 12 11 10 9 9 9 10 10 10 9 9 8 9 8 8 8 8 8 9 9 10 10 11 11 12 12 12 13 12 12 12 12 12 12 12 13 13 13 12 12 11 11 10 10 10 10 10 10 10 10
9 9 9 8 8 7 8 9 9 9 9 8 9 10 11 12 13 14 15 15 15 13 12 11 11 11 11 10 10 10 10 10 10 10 9 9 10 10 10 10 10 11 11 12 12 13 13 13 13 13 12 12 12 13 13 13 13 12 11 11 10 9 9 8 8 8 9 9 10
9 8 8 7 6 6 6 6 7 8 8 8 8 9 9 10 11 13 15 17 17 17 15 14 13 13 13 12 11 11 11 12 12 12 11 11 11 11 10 11 12 12 13 13 13 13 12 12 12 12 12 12 12 12 12 12 12 11 11 10 9 8 7 7 7 8 8 9 9
8 7 7 6 7 6 4 3 5 6 7 6 6 6 6 7 9 11 13 15 17 18 18 17 17 16 16 15 14 13 12 12 12 12 12 13 12 12 12 12 13 13 13 14 13 13 12 12 12 12 12 12 12 11 11 10 10 10 9 8 7 7 7 7 7 7 8 8 8
8 8 7 7 7 5 3 3 4 5 5 4 5 5 7 8 9 11 12 13 15 16 18 18 18 18 17 17 15 14 13 12 11 12 12 13 13 13 13 12 13 13 13 13 13 12 12 11 12 12 12 12 11 10 10 9 8 8 7 6 6 6 7 7 7 7 7 7 7
9 8 8 8 7 5 4 5 5 4 5 6 7 9 10 11 11 11 11 12 13 14 15 17 17 17 16 15 14 12 11 10 10 11 12 12 12 12 12 12 12 12 12 12 12 11 11 12 12 12 12 11 10 9 8 8 7 6 6 6 6 7 7 7 7 7 7 6 6
9 8 8 8 7 6 5 5 5 6 7 9 10 11 11 11 11 10 10 10 10 11 12 13 13 12 11 11 9 8 8 8 9 10 10 10 10 11 11 11 11 11 11 11 11 11 12 12 12 11 10 10 9 8 7 7 6 6 6 6 7 7 7 7 7 6 6 6 6
8 8 8 8 8 7 6 6 7 8 9 10 10 10 9 9 8 8 8 8 8 8 8 8 8 8 8 8 8 8 9 9 9 9 9 9 9 9 9 10 10 10 10 10 10 11 11 11 10 9 9 8 7 7 6 6 6 6 6 7 7 7 7 6 6 6 6 6 6
8 8 8 8 8 7 7 8 8 8 9 8 8 7 7 7 7 7 7 6 6 6 7 8 8 8 8 9 9 9 9 9 8 8 8 8 8 8 9 9 9 9 9 9 10 10 10 9 9 8 7 7 6 6 6 6 6 6 7 7 7 6 6 6 6 6 6 6 6
8 8 8 8 8 8 8 8 7 7 7 6 5 5 6 7 7 7 7 7 7 7 8 8 8 9 9 9 9 9 8 8 8 7 7 7 7 7 7 7 7 8 8 8 9 9 8 8 8 7 7 7 6 6 6 6 6 7 7 7 6 6 6 6 6 6 6 5 5
8 8 8 8 8 8 8 7 6 6 5 5 4 4 5 6 7 7 7 7 7 8 8 8 8 9 9 9 8 8 7 6 6 6 6 6 6 6 6 6 6 7 7 8 8 8 8 8 7 7 7 7 7 6 6 6 6 6 6 6 6 6 6 6 6 6 5 5 5
8 8 8 8 8 8 7 7 6 6 5 4 4 4 4 5 6 7 8 8 7 7 7 7 8 8 7 7 7 6 6 5 5 5 5 5 6 6 6 6 6 7 7 8 8 8 8 7 7 7 7 7 6 6 6 6 6 6 6 6 6 6 6 6 6 5 5 5 5
8 8 8 7 7 7 7 7 7 6 5 4 3 3 3 3 5 6 7 7 7 7 7 7 7 6 6 6 5 5 5 5 5 5 5 5 6 6 6 6 6 7 7 8 8 8 7 7 7 7 7 6 6 6 6 6 6 6 6 6 6 5 5 5 5 5 5 5 6
8 8 7 7 7 7 7 7 7 6 5 4 3 3 3 2 3 5 6 7 7 7 7 7 7 6 6 6 5 5 5 5 5 5 6 6 6 6 6 6 7 7 7 7 7 7 7 7 7 7 6 6 6 6 6 6 6 6 5 5 5 5 5 5 5 5 6 6 7
9 8 7 7 7 8 8 7 7 6 4 3 3 4 4 3 3 4 5 6 7 7 7 7 7 6 6 6 5 5 5 5 5 5 6 6 6 6 6 6 7 7 7 7 7 7 7 7 7 7 7 7 7 6 6 6 5 5 5 4 4 5 5 5 6 6 6 7 7
10 9 8 7 8 8 8 7 6 5 4 3 3 4 4 3 3 4 5 6 7 7 7 6 6 6 6 5 5 5 5 6 6 6 6 6 7 7 7 7 7 7 7 7 7 7 7 7 8 8 8 7 7 6 6 5 5 4 4 4 5 5 6 6 6 6 7 7 8
11 10 9 8 8 8 8 7 6 5 4 4 4 4 4 4 4 5 6 6 7 7 7 6 6 6 5 5 5 5 5 5 5 6 6 7 7 8 7 7 7 7 7 7 8 8 8 8 8 8 8 7 7 6 5 5 4 4 5 5 6 6 6 7 7 7 7 7 8
11 11 10 9 8 8 7 7 6 5 4 4 4 5 5 5 5 6 6 6 7 7 7 7 6 5 5 4 4 5 5 4 5 6 7 7 8 8 8 8 8 8 8 8 8 8 8 8 8 7 7 7 6 5 5 5 5 5 6 6 6 7 7 7 7 7 7 7 7
Wind_Direction
251 253 254 256 257 258 260 262 263 264 264 265 266 267 268 268 268 269 268 268 267 266 265 264 264 263 262 261 260 260 259 259 258 258 258 258 259 259 259 259 260 261 261 262 263 263 264 265 266 267 268 268 268 268 267 265 263 260 258 257 258 261 262 262 261 261 262 263 266
252 254 255 256 257 259 260 261 262 263 264 265 266 268 269 270 270 270 270 269 268 268 267 267 266 265 264 263 262 261 260 259 259 258 258 258 258 258 258 258 259 259 260 261 262 263 264 265 265 266 267 267 267 266 264 262 260 257 256 255 256 258 259 259 258 256 256 259 264
255 256 257 258 258 259 259 260 262 263 264 265 266 267 269 270 270 270 270 270 270 270 270 269 269 268 267 266 265 264 263 262 261 260 259 259 259 259 259 259 258 259 259 260 261 261 262 263 264 265 265 265 264 263 261 260 258 256 254 254 254 255 255 256 255 253 253 256 260
257 258 259 260 260 260 261 261 261 263 264 265 266 267 268 269 270 270 271 271 271 271 271 271 270 270 269 268 267 266 266 265 264 263 262 262 261 261 260 259 259 258 258 258 258 259 260 260 261 261 261 261 260 260 259 258 256 254 253 252 252 252 253 253 253 252 252 255 257
260 260 261 261 262 262 262 262 262 263 264 265 266 267 268 269 269 270 271 271 271 272 272 272 271 271 270 270 269 268 268 267 266 265 264 263 263 262 261 260 259 257 256 256 256 256 256 257 257 257 257 257 257 257 257 256 254 252 250 251 251 251 251 251 251 251 253 255 254
260 261 261 262 262 262 263 263 263 264 264 265 266 266 267 268 268 269 269 270 270 271 271 271 271 271 270 270 269 269 268 268 267 266 265 264 263 263 262 260 259 257 255 254 253 253 253 253 253 253 254 254 255 255 254 253 251 249 248 248 249 251 251 250 249 250 252 252 249
260 261 261 262 262 262 263 263 264 265 265 266 266 266 267 267 267 267 267 268 268 269 269 269 270 270 270 269 269 269 268 268 267 266 265 264 264 262 262 261 259 257 255 253 252 251 251 251 251 251 252 253 253 253 251 249 248 246 247 249 250 251 249 247 245 246 247 246 244
260 260 260 261 261 262 263 264 264 265 266 266 267 267 266 266 266 266 266 266 267 267 267 268 268 269 269 269 269 268 268 268 267 267 266 265 264 263 262 261 260 258 255 252 250 249 248 249 249 250 251 252 253 251 248 245 243 244 247 250 250 249 246 242 240 240 242 242 241
261 261 261 262 262 262 263 264 264 265 265 266 266 266 266 266 266 266 266 266 266 266 266 266 267 267 268 268 268 268 268 268 268 267 266 266 265 264 262 261 260 258 255 251 249 247 246 247 247 248 250 251 251 249 246 243 242 244 246 248 247 246 243 240 238 238 239 239 239
265 265 264 264 264 264 264 264 265 265 265 265 265 266 266 266 266 266 266 265 265 265 265 265 266 266 267 268 268 268 268 268 268 268 267 266 265 264 262 261 259 256 253 249 247 245 245 245 246 246 247 247 247 245 244 243 244 243 243 242 242 242 241 240 239 239 238 238 238
269 269 269 268 267 267 266 266 266 265 265 265 265 265 265 265 265 265 265 264 264 264 264 265 266 266 267 268 268 269 269 269 269 268 267 266 264 262 261 259 256 253 250 246 244 242 242 242 242 242 242 241 241 242 243 244 245 243 240 238 238 239 240 241 241 240 238 236 238
272 272 271 270 270 269 268 267 267 266 265 265 265 264 264 264 264 264 263 263 263 264 264 265 266 266 267 268 269 269 270 270 269 268 267 265 264 261 259 257 254 250 246 242 240 239 238 238 238 237 236 235 236 238 242 247 248 245 240 237 237 239 240 241 239 237 235 234 236
273 273 272 271 270 270 269 268 267 266 265 265 264 264 263 263 263 262 262 263 263 263 264 265 266 267 267 268 269 270 270 270 270 268 267 265 263 261 258 255 252 247 243 239 237 235 234 234 233 232 231 231 232 237 243 248 249 247 244 242 242 242 242 238 233 229 230 233 236
272 272 271 270 270 269 268 267 266 265 264 263 263 262 262 261 261 261 261 262 262 263 264 265 266 266 267 268 269 270 270 270 269 268 266 265 262 260 257 254 250 245 240 237 234 232 232 231 230 228 228 230 233 239 244 246 247 246 247 248 248 246 243 237 228 225 227 233 237
271 269 268 267 267 267 267 266 264 263 262 261 261 260 260 259 259 259 259 260 261 261 262 263 265 266 268 269 270 271 270 269 268 267 266 264 261 258 255 252 247 243 238 235 232 231 230 230 229 227 228 232 238 242 244 244 244 244 246 246 245 242 238 232 224 221 224 229 233
267 265 264 263 264 264 263 261 260 259 259 258 257 257 256 255 255 256 257 257 258 259 259 260 263 266 269 271 271 271 271 269 267 265 263 261 259 256 253 249 245 240 236 233 231 229 228 227 228 228 231 235 241 244 243 241 239 238 237 234 232 230 229 227 226 226 228 230 236
261 259 259 259 260 259 258 256 255 254 254 254 253 252 251 251 252 253 254 254 255 255 255 257 260 264 267 270 271 271 270 267 264 260 257 255 255 254 251 247 242 238 234 231 227 224 223 224 226 229 233 237 239 238 234 230 228 227 224 221 219 221 226 233 238 241 242 243 248
255 255 256 257 256 254 250 249 248 248 248 249 249 249 249 248 249 250 251 251 251 250 249 250 252 255 259 263 268 268 268 263 257 250 245 243 243 244 243 241 235 231 228 225 222 220 220 222 225 229 233 232 225 217 211 211 214 216 215 214 215 221 232 243 249 252 254 255 257
251 252 254 253 249 243 238 238 241 243 245 245 246 246 245 244 242 242 243 245 245 243 240 236 235 237 241 247 254 258 258 255 246 232 222 218 217 216 214 215 213 211 213 215 217 218 219 220 222 224 221 213 200 193 196 203 210 216 221 225 231 239 246 251 254 256 258 259 259
248 249 247 237 228 223 227 233 239 243 245 245 244 242 239 236 235 234 234 236 236 233 228 224 219 220 226 235 239 236 227 216 209 198 192 190 189 187 184 183 183 188 194 205 211 214 214 212 210 207 201 194 190 193 202 212 224 238 248 253 253 252 251 251 252 254 255 256 256
246 248 239 221 208 211 222 234 241 243 240 238 242 241 238 234 234 234 234 233 230 227 227 226 223 222 226 232 233 226 214 207 210 209 199 185 180 184 189 193 199 202 204 208 213 212 208 204 200 197 196 197 202 211 223 236 249 255 256 254 251 249 248 247 247 248 249 250 250
246 255 249 229 215 215 224 234 241 237 222 210 228 240 241 237 234 233 230 225 221 222 224 228 229 228 228 229 227 220 213 213 219 220 218 215 213 216 217 214 213 213 214 215 217 217 215 212 211 213 217 223 231 241 250 256 258 257 254 250 247 245 244 243 242 242 243 245 246
237 251 254 245 235 231 233 237 240 230 210 198 219 235 239 236 232 228 223 219 216 216 217 222 226 226 226 223 221 216 215 218 223 221 217 216 219 222 221 216 212 209 210 213 216 220 224 229 234 239 244 248 254 258 261 261 260 257 253 248 244 241 239 238 239 240 242 245 247
217 229 241 250 251 248 245 245 242 228 207 199 217 230 234 233 231 229 228 226 224 221 219 220 222 222 220 217 214 213 214 218 222 221 216 215 218 220 220 218 214 211 210 213 217 222 227 234 241 246 249 252 254 255 256 256 255 252 247 242 238 234 234 235 239 242 245 248 250
213 225 241 259 264 259 252 248 238 218 203 207 222 231 232 232 232 233 234 234 232 230 229 228 226 225 222 218 215 213 214 217 220 221 221 221 222 224 226 227 226 224 223 223 226 230 233 238 241 243 245 245 245 245 245 245 243 239 235 231 228 228 231 236 241 245 248 250 252
224 236 251 268 269 261 251 241 218 200 196 213 230 239 241 241 239 239 239 239 237 235 235 235 235 235 234 232 230 228 226 224 224 226 229 232 232 232 233 236 238 237 236 235 236 238 240 239 238 236 235 233 232 231 231 229 228 225 223 222 223 227 232 239 245 248 250 251 252
239 250 256 258 259 256 245 214 190 186 195 218 240 256 263 262 257 254 250 246 242 239 238 239 240 242 243 245 248 249 247 242 238 238 241 244 243 239 237 238 241 241 240 238 238 237 235 231 227 224 221 218 216 214 214 214 215 216 216 219 223 230 235 240 242 245 247 249 251
251 254 251 245 249 246 221 171 173 185 202 225 242 253 261 264 267 267 265 259 250 244 242 242 242 243 246 251 256 258 257 253 248 247 248 249 246 241 236 236 237 237 237 235 233 228 222 216 213 210 208 205 203 202 203 204 207 210 214 219 226 232 235 238 240 242 244 246 249
253 251 243 235 234 226 201 180 183 200 222 237 245 251 255 260 263 265 264 261 253 247 243 242 242 244 247 251 253 253 249 244 242 243 242 240 236 232 230 229 230 230 228 227 222 215 208 204 202 201 199 198 196 196 198 201 205 210 217 222 227 231 233 236 239 241 242 244 244
248 240 229 222 217 207 196 192 203 222 238 248 254 257 258 258 256 255 253 249 244 240 236 236 237 237 237 236 231 224 218 218 223 226 225 221 220 219 220 221 221 219 218 215 210 203 197 195 195 196 195 195 195 197 200 204 209 214 219 224 227 230 232 234 236 238 238 238 235
231 222 215 210 207 203 202 207 218 232 243 251 256 256 251 245 239 234 232 230 225 219 214 210 204 200 198 195 190 186 188 194 201 205 206 207 209 211 212 212 210 208 207 205 202 197 193 192 193 194 195 197 198 200 203 208 211 215 218 222 225 228 229 230 230 229 228 227 223
214 210 207 204 203 206 212 218 226 234 243 249 250 242 229 218 211 208 205 199 188 176 168 166 168 170 172 172 173 176 180 185 190 195 199 202 205 206 205 202 198 197 198 199 198 195 193 192 194 196 198 199 200 202 204 207 210 213 215 218 220 221 221 221 219 219 217 216 212
208 207 206 206 209 214 220 226 230 235 239 240 236 222 207 197 191 186 181 176 167 162 161 164 168 171 173 174 177 179 182 187 192 199 203 205 207 205 202 196 192 192 194 196 196 195 194 195 197 198 200 201 201 202 203 205 207 210 211 212 212 211 211 209 208 208 207 207 204
211 213 215 216 218 221 223 223 224 226 228 232 229 220 208 196 187 182 178 175 173 172 172 174 176 177 178 179 182 185 189 193 199 205 210 213 215 214 210 202 194 194 195 195 195 194 194 195 197 199 200 201 201 202 202 202 203 204 203 203 203 202 201 200 201 201 201 201 205
216 220 223 224 223 221 218 213 212 215 223 234 240 233 219 206 196 191 187 185 184 184 185 185 185 185 185 187 189 192 195 200 206 212 217 220 222 220 214 205 197 194 193 191 190 190 190 192 194 196 197 197 198 198 196 196 195 194 195 195 195 194 194 196 198 201 204 209 218
221 225 227 226 222 216 209 205 205 212 224 242 255 254 234 212 203 198 195 193 194 195 196 195 194 194 195 197 199 202 203 207 213 219 221 222 221 215 205 197 190 187 186 185 184 184 185 186 188 190 191 192 192 192 190 188 187 187 188 188 189 191 194 199 204 210 219 227 235
225 228 229 226 220 212 205 202 205 213 226 244 261 265 256 233 210 201 197 197 199 202 203 202 202 202 204 206 207 209 212 214 219 221 222 218 211 200 191 184 180 178 178 177 177 178 179 180 180 181 182 182 182 182 182 182 181 182 182 185 190 198 205 212 220 228 235 241 246
226 231 232 228 221 214 209 207 210 215 224 239 254 259 256 248 228 208 200 198 200 203 204 203 202 204 206 209 213 219 221 219 214 212 210 205 194 182 174 170 169 170 172 172 172 173 174 174 173 173 174 173 174 175 175 176 177 180 185 192 204 213 220 228 234 239 244 248 251
224 232 236 234 227 221 219 219 220 220 223 229 243 252 254 248 234 219 210 203 200 200 201 201 200 204 208 214 221 229 231 223 210 199 191 184 175 167 161 159 161 165 168 168 168 168 169 169 168 168 168 170 170 172 174 176 181 189 201 212 222 229 233 237 239 243 246 250 253
221 230 238 239 234 230 229 230 231 230 229 231 238 243 244 240 229 224 219 212 206 203 201 200 202 208 214 218 221 225 228 222 204 187 177 170 165 161 158 157 159 162 165 165 165 165 165 165 166 166 168 169 172 174 179 186 197 208 219 226 232 235 237 239 241 243 247 252 257
221 229 237 242 242 240 238 238 240 241 241 239 239 239 237 235 229 225 221 216 210 205 202 202 206 212 216 216 214 211 207 199 185 176 171 167 163 159 158 159 161 162 164 164 164 163 164 165 167 168 170 172 176 182 189 200 211 219 225 230 233 234 236 239 243 247 251 257 263
Height
1526 1526 1527 1527 1527 1528 1528 1528 1528 1528 1529 1529 1529 1529 1529 1529 1529 1529 1529 1529 1529 1529 1529 1529 1529 1529 1530 1530 1530 1530 1530 1530 1530 1530 1530 1530 1530 1530 1530 1530 1530 1530 1530 1530 1530 1531 1531 1531 1531 1531 1531 1531 1531 1532 1532 1532 1533 1533 1533 1534 1534 1534 1535 1535 1535 1535 1535 1535 1535
1524 1525 1525 1525 1525 1526 1526 1526 1526 1526 1527 1527 1527 1527 1527 1527 1527 1527 1527 1527 1527 1527 1527 1527 1527 1527 1527 1527 1527 1527 1527 1527 1527 1527 1527 1527 1527 1527 1528 1528 1528 1528 1528 1528 1528 1528 1528 1528 1529 1529 1529 1529 1529 1529 1530 1530 1530 1531 1531 1532 1532 1533 1533 1533 1533 1533 1533 1533 1533
1522 1523 1523 1523 1524 1524 1524 1525 1525 1525 1525 1525 1525 1525 1525 1525 1525 1525 1525 1525 1525 1525 1525 1525 1525 1525 1525 1525 1525 1525 1525 1525 1525 1525 1525 1525 1525 1525 1525 1525 1525 1525 1525 1526 1526 1526 1526 1526 1526 1526 1526 1526 1527 1527 1527 1528 1529 1529 1530 1530 1530 1531 1531 1531 1531 1531 1531 1531 1531
1521 1521 1521 1521 1522 1522 1522 1523 1523 1523 1523 1523 1523 1523 1523 1523 1523 1523 1523 1523 1523 1523 1523 1523 1523 1523 1523 1523 1523 1523 1523 1523 1523 1523 1523 1523 1523 1523 1523 1523 1523 1523 1523 1523 1524 1524 1524 1524 1524 1524 1524 1525 1525 1525 1525 1526 1527 1527 1528 1528 1529 1529 1529 1529 1529 1529 1529 1530 1530
1519 1519 1520 1520 1520 1520 1520 1521 1521 1521 1521 1521 1521 1521 1521 1521 1521 1521 1521 1521 1521 1521 1521 1521 1521 1520 1520 1521 1520 1520 1520 1520 1520 1520 1521 1521 1521 1521 1521 1521 1521 1521 1521 1521 1521 1521 1522 1522 1522 1522 1522 1523 1523 1524 1524 1525 1525 1525 1526 1527 1527 1527 1527 1527 1527 1527 1528 1528 1528
1517 1518 1518 1518 1518 1518 1519 1519 1519 1519 1519 1519 1519 1519 1519 1519 1519 1519 1519 1519 1519 1519 1519 1519 1519 1519 1519 1519 1519 1518 1518 1518 1518 1518 1518 1519 1519 1519 1519 1519 1519 1519 1519 1519 1519 1520 1520 1520 1520 1520 1521 1521 1522 1522 1523 1523 1524 1524 1524 1525 1525 1525 1525 1525 1525 1526 1526 1526 1526
1516 1516 1516 1516 1516 1516 1517 1517 1517 1517 1517 1517 1517 1517 1517 1517 1517 1517 1517 1517 1517 1517 1517 1517 1517 1516 1516 1516 1516 1516 1516 1516 1516 1516 1516 1516 1516 1516 1517 1517 1517 1517 1517 1517 1517 1518 1518 1518 1519 1519 1519 1520 1520 1520 1521 1522 1522 1522 1523 1523 1524 1524 1524 1524 1524 1524 1525 1525 1525
1514 1514 1514 1514 1514 1515 1515 1515 1515 1515 1515 1515 1515 1515 1515 1515 1515 1515 1515 1515 1515 1515 1515 1515 1515 1515 1515 1514 1514 1514 1514 1514 1514 1514 1514 1514 1514 1514 1515 1515 1515 1515 1515 1515 1515 1516 1516 1516 1517 1517 1517 1518 1518 1519 1520 1520 1520 1521 1521 1522 1522 1522 1522 1522 1522 1523 1523 1524 1524
1512 1512 1512 1512 1512 1512 1512 1513 1513 1513 1513 1513 1513 1513 1513 1513 1513 1513 1513 1513 1513 1513 1513 1513 1513 1512 1512 1512 1512 1512 1512 1512 1512 1512 1512 1512 1512 1512 1512 1512 1512 1513 1513 1513 1514 1514 1514 1515 1515 1515 1516 1516 1517 1517 1518 1519 1519 1520 1520 1520 1520 1520 1520 1521 1521 1521 1522 1522 1523
1510 1510 1510 1510 1510 1510 1510 1510 1510 1511 1511 1511 1511 1511 1511 1511 1511 1511 1511 1511 1511 1511 1511 1510 1510 1510 1510 1510 1510 1510 1510 1510 1510 1510 1510 1510 1510 1510 1510 1510 1510 1510 1511 1511 1511 1512 1512 1513 1513 1514 1515 1515 1515 1516 1517 1517 1518 1518 1519 1519 1519 1519 1519 1520 1520 1520 1521 1521 1522
1508 1508 1508 1508 1508 1508 1508 1508 1508 1508 1509 1509 1509 1509 1509 1509 1509 1509 1509 1509 1509 1509 1509 1509 1509 1509 1508 1508 1508 1508 1508 1508 1508 1508 1508 1508 1508 1508 1508 1508 1508 1508 1509 1509 1510 1510 1510 1511 1512 1513 1513 1514 1514 1515 1515 1516 1516 1517 1517 1517 1517 1517 1518 1518 1519 1519 1519 1520 1520
1506 1506 1506 1506 1506 1506 1506 1506 1506 1506 1506 1506 1506 1506 1506 1506 1506 1506 1506 1507 1507 1507 1507 1507 1507 1507 1506 1506 1506 1506 1506 1506 1506 1506 1506 1506 1506 1506 1506 1506 1506 1506 1507 1507 1508 1508 1509 1510 1510 1511 1512 1512 1513 1513 1514 1515 1515 1515 1515 1515 1515 1516 1516 1517 1517 1518 1518 1519 1519
1504 1504 1504 1504 1504 1504 1504 1504 1504 1504 1504 1504 1504 1504 1505 1505 1505 1505 1505 1505 1505 1505 1505 1505 1505 1505 1505 1505 1505 1505 1505 1504 1504 1504 1504 1504 1504 1504 1504 1504 1504 1505 1505 1505 1506 1507 1507 1508 1509 1510 1510 1511 1511 1512 1513 1513 1514 1514 1514 1514 1514 1515 1515 1515 1516 1516 1517 1517 1518
1502 1502 1502 1502 1502 1502 1502 1502 1502 1502 1502 1502 1502 1502 1503 1503 1503 1503 1503 1503 1503 1503 1503 1503 1503 1503 1503 1503 1503 1503 1503 1503 1503 1502 1502 1502 1502 1502 1502 1503 1503 1503 1503 1504 1504 1505 1506 1506 1507 1508 1509 1510 1510 1511 1511 1512 1512 1512 1512 1513 1513 1513 1514 1514 1515 1515 1515 1516 1517
1500 1500 1500 1500 1500 1500 1500 1500 1500 1500 1500 1500 1500 1501 1501 1501 1501 1501 1501 1501 1501 1501 1501 1501 1501 1501 1501 1501 1501 1501 1501 1501 1501 1501 1501 1501 1501 1501 1501 1501 1501 1501 1502 1502 1503 1504 1504 1505 1506 1507 1508 1508 1509 1510 1510 1510 1510 1511 1511 1512 1512 1512 1513 1513 1514 1514 1515 1515 1515
1499 1498 1498 1498 1499 1499 1499 1499 1498 1498 1499 1499 1499 1499 1499 1499 1499 1500 1500 1500 1500 1500 1500 1500 1500 1500 1500 1500 1500 1500 1500 1500 1500 1500 1500 1500 1500 1500 1500 1500 1500 1500 1501 1501 1502 1503 1503 1504 1505 1506 1506 1507 1508 1508 1509 1509 1509 1510 1510 1510 1511 1512 1512 1513 1513 1514 1514 1514 1514
1497 1497 1497 1497 1497 1497 1497 1497 1497 1497 1497 1497 1498 1498 1498 1498 1498 1498 1498 1498 1498 1498 1499 1499 1498 1498 1498 1498 1498 1498 1498 1498 1498 1498 1498 1498 1498 1498 1499 1499 1499 1499 1500 1500 1501 1502 1502 1503 1504 1505 1505 1506 1506 1507 1507 1507 1508 1509 1509 1510 1510 1511 1511 1512 1512 1513 1513 1513 1513
1495 1495 1495 1495 1496 1496 1496 1495 1495 1495 1496 1496 1496 1496 1496 1496 1497 1497 1497 1497 1497 1497 1497 1497 1497 1497 1497 1497 1497 1497 1497 1497 1497 1497 1497 1497 1497 1498 1498 1498 1498 1499 1499 1500 1500 1501 1501 1502 1503 1504 1505 1505 1505 1505 1506 1507 1507 1508 1509 1509 1509 1510 1510 1511 1511 1512 1512 1512 1512
1494 1494 1494 1494 1495 1495 1495 1495 1494 1495 1495 1495 1495 1495 1495 1495 1495 1495 1496 1496 1496 1496 1496 1496 1496 1496 1496 1496 1496 1496 1496 1496 1496 1496 1496 1496 1497 1497 1497 1498 1498 1498 1499 1499 1500 1500 1501 1502 1502 1503 1504 1504 1504 1505 1505 1506 1507 1507 1508 1508 1509 1509 1510 1510 1510 1511 1511 1511 1511
1492 1493 1493 1493 1494 1494 1494 1493 1493 1494 1494 1494 1494 1494 1494 1494 1494 1495 1495 1495 1495 1495 1495 1495 1495 1495 1495 1495 1495 1495 1496 1496 1496 1496 1496 1496 1496 1496 1497 1497 1498 1498 1499 1499 1500 1500 1501 1501 1502 1502 1503 1503 1503 1504 1505 1505 1506 1507 1507 1508 1508 1509 1509 1509 1509 1509 1509 1509 1509
1492 1492 1492 1492 1493 1493 1492 1492 1492 1493 1493 1493 1493 1493 1493 1493 1493 1494 1494 1494 1494 1494 1494 1494 1494 1494 1494 1494 1495 1495 1495 1495 1495 1495 1495 1495 1496 1496 1496 1497 1497 1498 1498 1499 1499 1500 1500 1500 1501 1501 1502 1502 1503 1503 1504 1504 1505 1505 1506 1506 1507 1507 1507 1507 1507 1507 1507 1508 1508
1491 1491 1491 1491 1491 1491 1491 1491 1491 1492 1492 1492 1492 1492 1492 1492 1492 1493 1493 1493 1493 1493 1493 1493 1493 1494 1494 1494 1494 1494 1494 1495 1495 1495 1495 1495 1495 1496 1496 1497 1497 1498 1498 1499 1499 1499 1500 1500 1500 1501 1501 1501 1502 1502 1503 1503 1504 1504 1504 1505 1505 1505 1505 1506 1506 1506 1506 1506 1506
1490 1490 1490 1490 1490 1490 1490 1490 1490 1491 1491 1491 1491 1491 1491 1491 1491 1492 1492 1492 1492 1492 1492 1492 1493 1493 1493 1493 1493 1493 1494 1494 1494 1495 1495 1495 1495 1496 1496 1496 1497 1497 1498 1498 1499 1499 1499 1500 1500 1500 1500 1501 1501 1501 1502 1502 1502 1503 1503 1503 1504 1504 1505 1505 1505 1505 1505 1505 1505
1490 1490 1490 1490 1490 1490 1489 1489 1490 1490 1490 1490 1490 1490 1490 1490 1490 1491 1491 1491 1491 1491 1492 1492 1492 1493 1493 1493 1493 1493 1493 1494 1494 1494 1494 1495 1495 1495 1495 1496 1496 1496 1497 1497 1498 1498 1499 1499 1500 1500 1500 1500 1500 1501 1501 1501 1502 1502 1502 1503 1503 1503 1504 1504 1504 1504 1504 1505 1505
1489 1489 1489 1489 1489 1489 1489 1489 1489 1489 1490 1490 1490 1489 1489 1490 1490 1490 1490 1490 1490 1490 1490 1491 1491 1492 1492 1492 1492 1492 1493 1493 1493 1494 1494 1494 1494 1495 1495 1495 1495 1496 1496 1497 1497 1498 1498 1498 1499 1499 1499 1500 1500 1500 1500 1500 1501 1501 1502 1502 1502 1503 1503 1503 1503 1504 1504 1504 1504
1488 1488 1488 1488 1488 1488 1488 1488 1488 1488 1489 1489 1489 1489 1489 1489 1489 1489 1489 1489 1489 1489 1490 1490 1490 1490 1490 1491 1491 1491 1492 1492 1493 1493 1493 1493 1494 1494 1494 1495 1495 1495 1495 1496 1496 1497 1497 1497 1498 1498 1498 1499 1499 1499 1500 1500 1500 1501 1501 1501 1502 1502 1502 1502 1503 1503 1503 1503 1503
1487 1488 1488 1488 1488 1488 1487 1487 1488 1488 1488 1488 1488 1488 1488 1488 1488 1488 1488 1488 1488 1488 1488 1489 1489 1489 1490 1490 1490 1490 1491 1491 1491 1492 1492 1493 1493 1493 1493 1494 1494 1494 1495 1495 1495 1495 1496 1496 1497 1497 1497 1498 1498 1498 1499 1499 1500 1500 1500 1501 1501 1501 1501 1502 1502 1502 1502 1502 1502
1487 1487 1487 1487 1487 1487 1487 1487 1487 1488 1488 1488 1488 1487 1487 1487 1487 1487 1487 1487 1487 1487 1487 1488 1488 1488 1488 1489 1489 1490 1490 1490 1490 1491 1491 1492 1492 1492 1492 1492 1493 1493 1494 1494 1494 1495 1495 1495 1496 1496 1497 1497 1498 1498 1499 1499 1499 1500 1500 1500 1500 1500 1501 1501 1501 1501 1501 1502 1502
1486 1486 1487 1487 1487 1487 1487 1487 1487 1487 1487 1487 1487 1487 1486 1486 1486 1486 1486 1486 1486 1486 1486 1486 1487 1487 1488 1488 1488 1489 1489 1489 1490 1490 1490 1490 1491 1491 1491 1491 1492 1492 1493 1493 1494 1494 1495 1495 1495 1496 1496 1497 1497 1498 1498 1498 1499 1499 1499 1499 1500 1500 1500 1500 1500 1501 1501 1501 1501
1485 1486 1486 1486 1486 1487 1487 1487 1487 1487 1487 1486 1486 1486 1486 1486 1485 1485 1485 1485 1485 1485 1485 1485 1486 1486 1487 1487 1488 1488 1488 1489 1489 1489 1490 1490 1490 1490 1491 1491 1491 1492 1492 1493 1493 1494 1494 1495 1495 1495 1496 1496 1497 1497 1497 1498 1498 1498 1498 1499 1499 1499 1500 1500 1500 1500 1500 1500 1501
1485 1485 1485 1486 1486 1486 1486 1486 1486 1486 1486 1486 1485 1485 1485 1485 1485 1485 1485 1485 1485 1485 1485 1485 1485 1486 1486 1487 1487 1487 1488 1488 1488 1489 1489 1490 1490 1490 1490 1491 1491 1492 1492 1493 1493 1494 1494 1495 1495 1495 1495 1496 1496 1496 1497 1497 1497 1498 1498 1498 1499 1499 1499 1499 1499 1500 1500 1500 1501
1485 1485 1485 1485 1485 1486 1486 1486 1485 1485 1485 1485 1485 1485 1485 1484 1484 1484 1484 1484 1484 1485 1485 1485 1485 1485 1486 1486 1487 1487 1487 1488 1488 1489 1489 1489 1490 1490 1490 1491 1491 1491 1492 1492 1493 1493 1494 1494 1494 1495 1495 1495 1495 1496 1496 1496 1497 1497 1497 1498 1498 1498 1498 1499 1499 1499 1500 1500 1500
1484 1485 1485 1485 1485 1485 1485 1485 1485 1485 1485 1485 1485 1484 1484 1484 1484 1484 1484 1484 1484 1484 1485 1485 1485 1485 1486 1486 1486 1487 1487 1488 1488 1488 1489 1489 1489 1490 1490 1490 1490 1491 1491 1492 1492 1492 1493 1493 1493 1494 1494 1495 1495 1495 1495 1496 1496 1497 1497 1497 1497 1498 1498 1498 1499 1499 1499 1500 1500
1484 1484 1484 1485 1485 1485 1485 1485 1485 1485 1485 1484 1484 1484 1484 1484 1484 1484 1484 1484 1484 1484 1484 1485 1485 1485 1485 1486 1486 1486 1487 1487 1488 1488 1488 1488 1489 1489 1489 1490 1490 1490 1490 1491 1491 1492 1492 1492 1493 1493 1494 1494 1494 1495 1495 1495 1496 1496 1496 1497 1497 1497 1498 1498 1498 1499 1499 1499 1499
1483 1484 1484 1484 1484 1484 1484 1484 1484 1484 1484 1484 1484 1484 1484 1484 1484 1484 1484 1484 1484 1484 1484 1485 1485 1485 1485 1486 1486 1486 1486 1487 1487 1487 1487 1488 1488 1488 1488 1489 1489 1490 1490 1490 1491 1491 1491 1492 1492 1493 1493 1494 1494 1494 1495 1495 1495 1496 1496 1496 1497 1497 1497 1498 1498 1498 1499 1499 1499
1483 1483 1483 1483 1483 1483 1483 1484 1484 1484 1484 1484 1484 1484 1484 1484 1483 1483 1484 1484 1484 1484 1484 1485 1485 1485 1485 1485 1486 1486 1486 1486 1486 1487 1487 1487 1487 1488 1488 1488 1489 1489 1490 1490 1490 1491 1491 1491 1492 1492 1493 1493 1494 1494 1494 1495 1495 1495 1496 1496 1496 1497 1497 1497 1498 1498 1498 1498 1498
1482 1482 1482 1482 1483 1483 1483 1483 1483 1483 1483 1483 1483 1483 1483 1483 1483 1483 1483 1483 1484 1484 1484 1484 1484 1485 1485 1485 1485 1485 1486 1486 1486 1486 1486 1487 1487 1487 1488 1488 1489 1489 1489 1490 1490 1490 1491 1491 1492 1492 1492 1493 1493 1494 1494 1495 1495 1495 1495 1496 1496 1496 1497 1497 1497 1497 1498 1498 1498
1481 1481 1482 1482 1482 1482 1482 1483 1483 1483 1483 1483 1483 1483 1483 1483 1483 1483 1483 1483 1483 1483 1483 1484 1484 1484 1484 1485 1485 1485 1485 1486 1486 1486 1486 1486 1487 1487 1487 1488 1488 1489 1489 1489 1490 1490 1490 1491 1491 1492 1492 1493 1493 1494 1494 1494 1495 1495 1495 1495 1496 1496 1496 1497 1497 1497 1497 1497 1497
1480 1481 1481 1481 1482 1482 1482 1482 1482 1482 1482 1482 1482 1482 1482 1482 1482 1482 1482 1483 1483 1483 1483 1483 1483 1484 1484 1484 1485 1485 1485 1485 1485 1485 1486 1486 1486 1487 1487 1488 1488 1488 1489 1489 1490 1490 1490 1491 1491 1492 1492 1493 1493 1493 1494 1494 1494 1495 1495 1495 1495 1496 1496 1496 1496 1496 1496 1496 1496
1480 1480 1480 1481 1481 1481 1481 1482 1482 1482 1482 1482 1482 1481 1481 1482 1482 1482 1482 1482 1482 1482 1483 1483 1483 1483 1484 1484 1484 1484 1484 1485 1485 1485 1485 1486 1486 1486 1487 1488 1488 1488 1489 1489 1489 1490 1490 1491 1491 1491 1492 1492 1493 1493 1493 1494 1494 1494 1495 1495 1495 1495 1495 1495 1496 1496 1496 1496 1496
1479 1480 1480 1480 1480 1481 1481 1481 1481 1481 1481 1481 1481 1481 1481 1481 1481 1481 1481 1482 1482 1482 1482 1482 1482 1483 1483 1483 1483 1484 1484 1484 1484 1485 1485 1485 1486 1486 1487 1487 1488 1488 1488 1489 1489 1490 1490 1490 1491 1491 1492 1492 1492 1493 1493 1493 1494 1494 1494 1495 1495 1495 1495 1495 1495 1495 1495 1495 1495